Weather in Rtishchevo

Russia / Penza Oblast     53°41′33″N   42°48′26″E
temp.,
°C
wind,
m/s
gust,
m/s
humid.,
%
clouds,
%
prec.,
mm/h
press.,
hPa
HPBL,
m
5 december, sun
sun500:00−3wsw488427 0.0 1014627
03:00−3w37835 0.0 1015507
06:00−3sw248563 0.0 1015168
09:00−3sw2485100 0.0 1017172
12:00−1sw3473100 0.0 1017365
15:00−1sw2374100 0.0 1018224
18:00−2ssw118085 0.0 101813
21:00−3ssw22845 0.0 101923
6 december, mon
mon600:00−3s118560 0.0 102115
03:00−3s118477 0.0 102210
06:00−3sse228361 0.0 102217
09:00−3se2478100 0.0 102490
12:00−1sse3564100 0.0 1024255
15:00−1se3667100 0.0 1024235
18:00−2se4868100 0.0 1025268
21:00−2se41170100 0.0 1025350
7 december, tue
tue700:00−2se5127494 0.0 1025423
03:00−3se61376100 0.0 1025458
06:00−3se71472100 0.0 1024503
09:00−2sse81571100 0.0 1023549
12:00−1sse81779100 0.0 1021600
15:000sse91891100 1.6 1020591
18:00+1sse91895100 2.9 1019570
21:00+1s81895100 5.3 1018592
8 december, wed
wed800:00+2s81894100 0.4 1018580
03:00+2s91993100 0.4 1017573
06:00+2s81991100 0.0 1017531
09:00+2s81891100 0.0 1017477
12:00+3s71788100 0.0 1018522
15:00+3sse61588100 0.0 1017418
18:00+2sse61589100 0.0 1017397
21:00+2sse51490100 0.0 1018416
9 december, thu
thu900:00+2se51391100 0.0 1017373
03:00+2sse51291100 0.0 1017358
06:00+1se51291100 0.0 1017324
09:00+1sse51192100 0.0 1018332
12:00+1sse51089100 0.0 1017373
15:00+1se4989100 0.0 1017310
18:000se4992100 0.0 1018269
21:000se3794100 0.0 1018207